TimeEST,TemperatureF,Dew PointF,Humidity,Sea Level PressureIn,VisibilityMPH,Wind Direction,Wind SpeedMPH,Gust SpeedMPH,PrecipitationIn,Events,Conditions,WindDirDegrees,DateUTC
12:54 AM,19.9,1.9,46,30.25,10.0,South,4.6,-,N/A,,Clear,170,2014-03-07 05:54:00
1:54 AM,16.0,3.0,57,30.23,10.0,East,4.6,-,N/A,,Clear,100,2014-03-07 06:54:00
2:54 AM,16.0,3.0,57,30.20,10.0,SE,8.1,-,N/A,,Clear,140,2014-03-07 07:54:00
3:54 AM,18.0,5.0,57,30.19,10.0,SSE,8.1,-,N/A,,Clear,160,2014-03-07 08:54:00
4:54 AM,19.0,7.0,59,30.18,10.0,SE,8.1,-,N/A,,Clear,140,2014-03-07 09:54:00
5:54 AM,19.9,8.1,60,30.17,10.0,SSE,8.1,-,N/A,,Clear,160,2014-03-07 10:54:00
6:54 AM,19.9,8.1,60,30.17,10.0,SSE,6.9,-,N/A,,Partly Cloudy,160,2014-03-07 11:54:00
7:54 AM,19.9,9.0,62,30.18,10.0,South,4.6,-,N/A,,Partly Cloudy,180,2014-03-07 12:54:00
8:54 AM,26.1,12.0,55,30.18,10.0,South,8.1,-,N/A,,Partly Cloudy,170,2014-03-07 13:54:00
9:54 AM,30.0,16.0,56,30.17,10.0,SSW,4.6,-,N/A,,Partly Cloudy,200,2014-03-07 14:54:00
10:54 AM,35.1,19.0,52,30.13,10.0,SSW,10.4,-,N/A,,Partly Cloudy,210,2014-03-07 15:54:00
11:54 AM,37.9,21.0,51,30.09,10.0,SSW,6.9,-,N/A,,Partly Cloudy,210,2014-03-07 16:54:00
12:54 PM,39.9,19.9,45,30.07,10.0,SW,10.4,-,N/A,,Partly Cloudy,230,2014-03-07 17:54:00
1:54 PM,41.0,21.0,45,30.04,10.0,SW,11.5,-,N/A,,Partly Cloudy,220,2014-03-07 18:54:00
2:54 PM,42.1,21.0,43,30.02,10.0,SW,6.9,-,N/A,,Partly Cloudy,230,2014-03-07 19:54:00
3:54 PM,43.0,23.0,45,29.99,10.0,SSW,8.1,-,N/A,,Partly Cloudy,210,2014-03-07 20:54:00
4:54 PM,42.1,23.0,47,29.97,10.0,SW,8.1,-,N/A,,Partly Cloudy,220,2014-03-07 21:54:00
5:54 PM,39.0,21.9,50,29.97,10.0,SW,5.8,-,N/A,,Partly Cloudy,220,2014-03-07 22:54:00
6:54 PM,36.0,23.0,59,29.98,10.0,SSW,4.6,-,N/A,,Partly Cloudy,210,2014-03-07 23:54:00
7:54 PM,34.0,23.0,64,29.97,10.0,South,5.8,-,N/A,,Partly Cloudy,190,2014-03-08 00:54:00
8:54 PM,33.1,21.9,64,29.96,10.0,SSW,4.6,-,N/A,,Scattered Clouds,200,2014-03-08 01:54:00
9:54 PM,30.9,21.9,69,29.94,10.0,South,5.8,-,N/A,,Scattered Clouds,190,2014-03-08 02:54:00
10:54 PM,30.0,21.0,69,29.91,10.0,South,6.9,-,N/A,,Scattered Clouds,190,2014-03-08 03:54:00
11:54 PM,30.9,21.9,69,29.89,10.0,South,4.6,-,N/A,,Scattered Clouds,190,2014-03-08 04:54:00